Skip Page Navigation
NASA JPL Caltech
NASA Logo - Jet Propulsion Laboratory + View the NASA Portal
+ Near-Earth Object (NEO) Program
Search JPL
JPL Home Earth Solar System Stars & Galaxies Technology
JPL Solar System Dynamics
BODIES ORBITS EPHEMERIDES TOOLS PHYSICAL DATA DISCOVERY FAQ SITE MAP
JPL Small-Body Database Browser
Search: [ help ]  
168318 (1989 DA)
Classification: Apollo [NEO, PHA]          SPK-ID: 2168318
Ephemeris | Orbit Diagram | Orbital Elements | Physical Parameters | Discovery Circumstances | Close-Approach Data ]

[ hide orbit diagram ]
Orbit Diagram
Note: Make sure you have Java enabled on your browser to see the applet. This applet is provided as a 3D orbit visualization tool. The applet was implemented using 2-body methods, and hence should not be used for determining accurate long-term trajectories (over several years or decades) or planetary encounter circumstances. For accurate long-term ephemerides, please instead use our Horizons system.
Orbit Viewer

Additional Notes: the orbits shown in the applet are color coded. The planets are white lines, and the asteroid/comet is a blue line. The bright white line indicates the portion of the orbit that is above the ecliptic plane, and the darker portion is below the ecliptic plane. Likewise for the asteroid/comet orbit, the light blue indicates the portion above the ecliptic plane, and the dark blue the portion below the ecliptic plane.

Orbit Viewer applet originally written and kindly provided by Osamu Ajiki (AstroArts), and further modified by Ron Baalke (JPL).


Orbital Elements at Epoch 2456400.5 (2013-Apr-18.0) TDB
Reference: JPL 20 (heliocentric ecliptic J2000)
 Element Value Uncertainty (1-sigma)   Units 
e .5427963390833529 8.9095e-08  
a 2.162280179832792 5.7751e-09 AU
q .9886024141470584 1.9333e-07 AU
i 6.491812706843807 2.444e-05 deg
node 349.2002916487359 4.0472e-05 deg
peri 139.7529356370169 5.1534e-05 deg
M 220.978594282005 1.6472e-05 deg
tp 2456848.982553198739
(2014-Jul-10.48255320)
5.4338e-05 JED
period 1161.35870096908
3.18
4.6527e-06
1.274e-08
d
yr
n .3099817478437995 1.2419e-09 deg/d
Q 3.335957945518525 8.9098e-09 AU
  Orbit Determination Parameters
   # obs. used (total)      58  
   data-arc span      6990 days (19.14 yr)  
   first obs. used      1989-02-27  
   last obs. used      2008-04-18  
   planetary ephem.      DE405  
   SB-pert. ephem.      SB405-CPV-2  
   condition code      0  
   fit RMS      .78771  
   data source      ORB  
   producer      Otto Matic  
   solution date      2013-Apr-29 15:40:10  

Additional Information
 Earth MOID = .0436377 AU 
 T_jup = 3.482 
[ show covariance matrix ]

Ephemeris | Orbit Diagram | Orbital Elements | Physical Parameters | Discovery Circumstances | Close-Approach Data ]

Physical Parameter Table
Parameter Symbol Value Units Sigma Reference Notes
absolute magnitude H 18.827 mag .59181 20 autocmod 2.5c
diameter diameter 0.9 km n/a Hazards due to Comets and Asteroids (1994), Ed. T. Gehrels, pp.540-543 based on assumed medium albedo (0.15)
rotation period rot_per 3.925 h n/a Asteroid Lightcurve DataBase (Rev. 2013-May-01) Published Reference List:
[Wisniewski, W.Z.; Michalowski, T.M.; Harris, A.W.; McMillan, R.S. (1997) Icarus 126, 395-449; 1995, Lunar & Planetary Science XXVI, 1511-1512.]

168318 (1989 DA)          Discovered 1989-Feb-27 by Phinney, J. at Palomar (675)
Reference: 20071124/Numbers.arcLast Updated: 2007-11-26

[ show close-approach data ]
Ephemeris | Orbit Diagram | Orbital Elements | Physical Parameters | Discovery Circumstances | Close-Approach Data ]
ABOUT SSD CREDITS/AWARDS PRIVACY/COPYRIGHT GLOSSARY LINKS
FirstGov 2013-May-20 17:44 UT
(server date/time)  
NASA Home Page
Site Manager:   Donald K. Yeomans
Webmaster  Alan B. Chamberlin